Weather History for EBLG - April, 2013

Change the Weather History Date:

Friday, April 19, 2013

  Actual Average Record
Temperature  
Mean Temperature 46 °F -  
Max Temperature 52 °F 59 °F 73 °F (2011)
Min Temperature 40 °F 44 °F 32 °F (2001)
Degree Days  
Heating Degree Days 19    
Moisture  
Dew Point 38 °F    
Average Humidity 72    
Maximum Humidity 93    
Minimum Humidity 47    
Precipitation  
Precipitation 0.04 in - - ()
Sea Level Pressure  
Sea Level Pressure 30.24 in    
Wind  
Wind Speed 11 mph ()    
Max Wind Speed 16 mph    
Max Gust Speed -    
Visibility 7.3 miles    
Events Rain    
Averages and records for this station are not official NWS values.
T = Trace of Precipitation, MM = Missing Value Source: Averaged Metar Reports

Daily Weather History Graph

Daily Weather History Graph

Search for Another Location

Airport or City:

Trip Planner

Search our weather history database for the weather conditions in past years. The results will help you decide how hot, cold, wet, or windy it might be!

Date:

Astronomy

Apr. 19, 2013 Rise Set
Actual Time 6:35 AM CEST 8:39 PM CEST
Civil Twilight 6:00 AM CEST 9:15 PM CEST
Nautical Twilight 5:16 AM CEST 9:59 PM CEST
Astronomical Twilight 4:27 AM CEST 10:49 PM CEST
Moon 1:29 PM CEST (4/19) 3:23 AM CEST (4/19)
Length of Visible Light 15h 14m
Length of Day
14h 04m
First Quarter, 59% of the Moon is Illuminated
Apr 19
First Quarter
Apr 25
Full
May 2
Last Quarter
May 10
New
May 18
First Quarter

Hourly Weather History & Observations

Time (CEST) Temp. Windchill Dew Point Humidity Pressure Visibility Wind Dir Wind Speed Gust Speed Precip Events Conditions
12:20 AM 51.8 °F - 37.4 °F 58% 30.12 in - West 16.1 mph - N/A   Clear
12:50 AM 50.0 °F - 39.2 °F 66% 30.12 in 6.2 mi West 13.8 mph - N/A   Partly Cloudy
1:20 AM 48.2 °F - 39.2 °F 71% 30.12 in 6.2 mi WSW 13.8 mph - N/A   Partly Cloudy
1:50 AM 46.4 °F 39.8 °F 37.4 °F 71% 30.15 in - WSW 16.1 mph - N/A   Clear
2:00 AM 47 °F - 38 °F 60% 30.17 in 19 mi WSW 15.7 mph - -   Scattered Clouds
2:20 AM 46.4 °F 40.4 °F 37.4 °F 71% 30.15 in - WSW 13.8 mph - N/A   Clear
2:50 AM 46.4 °F 39.8 °F 37.4 °F 71% 30.15 in - WSW 16.1 mph - N/A   Clear
3:20 AM 46.4 °F 39.8 °F 37.4 °F 71% 30.15 in - WSW 16.1 mph - N/A   Clear
3:50 AM 44.6 °F 38.1 °F 37.4 °F 76% 30.15 in - WSW 13.8 mph - N/A   Clear
4:20 AM 44.6 °F 38.8 °F 37.4 °F 76% 30.15 in - WSW 11.5 mph - N/A   Clear
4:50 AM 44.6 °F 39.2 °F 37.4 °F 76% 30.15 in 6.2 mi WSW 10.4 mph - N/A   Partly Cloudy
5:00 AM 44 °F - 37 °F 68% 30.19 in 14 mi WSW 8.9 mph - -   Scattered Clouds
5:20 AM 42.8 °F 36.6 °F 37.4 °F 81% 30.15 in 6.2 mi WSW 11.5 mph - N/A   Partly Cloudy
5:50 AM 42.8 °F 37.5 °F 37.4 °F 81% 30.15 in - WSW 9.2 mph - N/A   Clear
6:20 AM 41.0 °F 35.8 °F 37.4 °F 87% 30.18 in - SW 8.1 mph - N/A   Clear
6:50 AM 41.0 °F 34.7 °F 37.4 °F 87% 30.18 in - SW 10.4 mph - N/A   Clear
7:20 AM 42.8 °F 37.5 °F 37.4 °F 81% 30.18 in - SSW 9.2 mph - N/A   Clear
7:50 AM 42.8 °F 37.0 °F 37.4 °F 81% 30.18 in - SW 10.4 mph - N/A   Clear
8:00 AM 42 °F - 37 °F 77% 30.22 in 11 mi SW 11.2 mph - -   Clear
8:20 AM 44.6 °F 38.4 °F 37.4 °F 76% 30.21 in - SW 12.7 mph - N/A   Clear
8:50 AM 44.6 °F 38.1 °F 37.4 °F 76% 30.21 in 6.2 mi WSW 13.8 mph - N/A   Partly Cloudy
9:20 AM 46.4 °F 40.1 °F 37.4 °F 71% 30.21 in 6.2 mi WSW 15.0 mph - N/A   Partly Cloudy
9:50 AM 46.4 °F 40.1 °F 37.4 °F 71% 30.21 in 6.2 mi West 15.0 mph - N/A   Scattered Clouds
10:20 AM 46.4 °F 40.7 °F 39.2 °F 76% 30.21 in 6.2 mi West 12.7 mph - N/A   Mostly Cloudy
10:50 AM 46.4 °F 40.4 °F 39.2 °F 76% 30.24 in 6.2 mi West 13.8 mph - N/A   Mostly Cloudy
11:00 AM 47 °F - 38 °F 63% 30.26 in 8 mi West 13.4 mph - -   Mostly Cloudy
11:20 AM 48.2 °F - 37.4 °F 66% 30.24 in 6.2 mi West 13.8 mph - N/A   Mostly Cloudy
11:50 AM 48.2 °F - 39.2 °F 71% 30.24 in 6.2 mi West 10.4 mph - N/A   Mostly Cloudy
12:20 PM 48.2 °F - 37.4 °F 66% 30.24 in 6.2 mi WSW 11.5 mph - N/A   Mostly Cloudy
12:50 PM 51.8 °F - 37.4 °F 58% 30.24 in 6.2 mi WSW 12.7 mph - N/A   Mostly Cloudy
1:20 PM 50.0 °F - 37.4 °F 62% 30.24 in 6.2 mi West 12.7 mph - N/A   Mostly Cloudy
1:50 PM 51.8 °F - 37.4 °F 58% 30.24 in 6.2 mi West 13.8 mph - N/A   Partly Cloudy
2:00 PM 52 °F - 38 °F 47% 30.27 in 8 mi West 13.4 mph - -   Mostly Cloudy
2:20 PM 51.8 °F - 37.4 °F 58% 30.24 in 6.2 mi West 13.8 mph - N/A   Partly Cloudy
2:50 PM 51.8 °F - 37.4 °F 58% 30.24 in 6.2 mi West 10.4 mph - N/A   Partly Cloudy
3:20 PM 50.0 °F - 39.2 °F 66% 30.27 in 6.2 mi West 15.0 mph - N/A   Partly Cloudy
3:50 PM 50.0 °F - 37.4 °F 62% 30.27 in 6.2 mi West 11.5 mph - N/A   Partly Cloudy
4:20 PM 51.8 °F - 39.2 °F 62% 30.27 in 6.2 mi WNW 8.1 mph - N/A   Scattered Clouds
4:50 PM 50.0 °F - 39.2 °F 66% 30.27 in 6.2 mi NW 10.4 mph - N/A   Scattered Clouds
5:00 PM 49 °F - 40 °F 62% 30.29 in 12 mi NW 11.2 mph - -   Mostly Cloudy
5:20 PM 50.0 °F - 41.0 °F 71% 30.27 in 6.2 mi NW 8.1 mph - N/A   Scattered Clouds
5:50 PM 46.4 °F 41.5 °F 39.2 °F 76% 30.27 in 6.2 mi NW 10.4 mph - N/A Rain Light Rain Showers
6:20 PM 46.4 °F 43.5 °F 39.2 °F 76% 30.30 in 6.2 mi WNW 5.8 mph - N/A   Mostly Cloudy
6:50 PM 48.2 °F - 39.2 °F 71% 30.30 in 6.2 mi WNW 8.1 mph - N/A   Scattered Clouds
7:20 PM 48.2 °F - 39.2 °F 71% 30.30 in 6.2 mi NW 6.9 mph - N/A   Scattered Clouds
7:50 PM 48.2 °F - 39.2 °F 71% 30.30 in 6.2 mi NW 8.1 mph - N/A   Scattered Clouds
8:00 PM 48 °F - 40 °F 64% 30.33 in 12 mi NW 6.7 mph - -   Partly Cloudy
8:20 PM 48.2 °F - 39.2 °F 71% 30.30 in 6.2 mi NW 6.9 mph - N/A   Scattered Clouds
8:50 PM 46.4 °F 44.3 °F 39.2 °F 76% 30.33 in 6.2 mi NNW 4.6 mph - N/A   Mostly Cloudy
9:20 PM 46.4 °F 43.5 °F 39.2 °F 76% 30.33 in 6.2 mi NW 5.8 mph - N/A   Mostly Cloudy
9:50 PM 42.8 °F 36.6 °F 41.0 °F 93% 30.36 in 6.2 mi North 11.5 mph - N/A Rain Light Rain Showers
10:20 PM 44.6 °F 39.2 °F 41.0 °F 87% 30.36 in 6.2 mi NNE 10.4 mph - N/A Rain Light Rain Showers
10:50 PM 44.6 °F 40.2 °F 41.0 °F 87% 30.36 in 6.2 mi North 8.1 mph - N/A   Mostly Cloudy
11:00 PM 44 °F - 41 °F 84% 30.40 in 12 mi North 6.7 mph - - Rain Light Rain Showers
11:20 PM 42.8 °F 38.6 °F 41.0 °F 93% 30.36 in 6.2 mi North 6.9 mph - N/A   Partly Cloudy
11:50 PM 42.8 °F 40.1 °F 39.2 °F 87% 30.39 in 5.0 mi North 4.6 mph - N/A   Partly Cloudy